Provo, UT

11:25 PM MDT on July 20, 2017 (GMT -0600)
Provo Municipal

Weather History for KPVU - January, 2013

Change the Weather History Date:

Sunday, January 20, 2013

  Actual Average Record
Temperature  
Mean Temperature 6 °F -  
Max Temperature 12 °F 35 °F 50 °F (2003)
Min Temperature 0 °F 22 °F -14 °F (1984)
Degree Days  
Heating Degree Days 59    
Moisture  
Dew Point 2 °F    
Average Humidity 91    
Maximum Humidity 100    
Minimum Humidity 85    
Precipitation  
Precipitation 0.00 in - - ()
Sea Level Pressure  
Sea Level Pressure 30.48 in    
Wind  
Wind Speed 0 mph (SSW)    
Max Wind Speed 4 mph    
Max Gust Speed -    
Visibility 1 miles    
Events Fog    
Averages and records for this station are not official NWS values.
T = Trace of Precipitation, MM = Missing Value Source: NWS Daily Summary

Daily Weather History Graph

Daily Weather History Graph

Search for Another Location

Airport or City:

Trip Planner

Search our weather history database for the weather conditions in past years. The results will help you decide how hot, cold, wet, or windy it might be!

Date:

Astronomy

Jan. 20, 2013 Rise Set
Actual Time 7:44 AM MST 5:31 PM MST
Civil Twilight 7:15 AM MST 6:01 PM MST
Nautical Twilight 6:42 AM MST 6:34 PM MST
Astronomical Twilight 6:09 AM MST 7:06 PM MST
Moon 12:35 PM MST (1/20) 2:20 AM MST (1/20)
Length of Visible Light 10h 45m
Length of Day
9h 46m
Waxing Gibbous, 67% of the Moon is Illuminated
Jan 20
Waxing Gibbous
Jan 26
Full
Feb 3
Last Quarter
Feb 10
New
Feb 17
First Quarter

Hourly Weather History & Observations

Time (MST) Temp. Windchill Dew Point Humidity Pressure Visibility Wind Dir Wind Speed Gust Speed Precip Events Conditions
12:35 AM 3.2 °F - 1.4 °F 92% 30.49 in 2.0 mi Calm Calm - N/A   Clear
1:15 AM 3.2 °F - 1.4 °F 92% 30.49 in 1.2 mi Calm Calm - N/A   Clear
1:35 AM 1.4 °F - -0.4 °F 92% 30.48 in 1.8 mi Calm Calm - N/A   Clear
1:55 AM 3.2 °F - 3.2 °F 100% 30.49 in 1.5 mi Calm Calm - N/A   Clear
2:15 AM 1.4 °F - -2.2 °F 85% 30.49 in 1.2 mi Calm Calm - N/A   Clear
2:35 AM 1.4 °F - -0.4 °F 92% 30.49 in 0.2 mi Calm Calm - N/A   Unknown
2:55 AM 1.4 °F - -0.4 °F 92% 30.49 in 0.2 mi Calm Calm - N/A   Overcast
3:15 AM 1.4 °F - 1.4 °F 100% 30.49 in 2.0 mi Calm Calm - N/A   Overcast
3:35 AM 1.4 °F - -0.4 °F 92% 30.49 in 2.5 mi Calm Calm - N/A   Mostly Cloudy
3:55 AM 1.4 °F - -2.2 °F 85% 30.48 in 2.5 mi Calm Calm - N/A   Partly Cloudy
4:15 AM -0.4 °F - -0.4 °F 100% 30.48 in 2.5 mi Calm Calm - N/A   Scattered Clouds
4:35 AM -0.4 °F - -2.2 °F 92% 30.48 in 0.2 mi Calm Calm - N/A   Overcast
4:55 AM -0.4 °F - -2.2 °F 92% 30.48 in 0.2 mi Calm Calm - N/A   Unknown
5:15 AM -0.4 °F - -2.2 °F 92% 30.48 in 0.2 mi Calm Calm - N/A   Unknown
5:35 AM -0.4 °F - -0.4 °F 100% 30.48 in 1.5 mi Calm Calm - N/A   Clear
5:55 AM 1.4 °F - 1.4 °F 100% 30.48 in 1.0 mi Calm Calm - N/A   Mostly Cloudy
6:15 AM 1.4 °F - 1.4 °F 100% 30.49 in 0.2 mi Calm Calm - N/A   Mostly Cloudy
6:35 AM 3.2 °F - 3.2 °F 100% 30.49 in 0.2 mi Calm Calm - N/A   Unknown
6:55 AM 3.2 °F - 1.4 °F 92% 30.49 in 0.2 mi Calm Calm - N/A Fog Fog
7:55 AM 5.0 °F - 3.2 °F 92% 30.50 in 0.5 mi Calm Calm - N/A Fog Fog
8:50 AM 5.0 °F - 3.2 °F 92% 30.51 in 0.8 mi Calm Calm - N/A   Mist
9:55 AM 6.8 °F - 6.8 °F 100% 30.52 in 1.2 mi Calm Calm - N/A   Clear
10:50 AM 8.6 °F - 6.8 °F 92% 30.53 in 1.5 mi Calm Calm - N/A   Clear
11:59 AM 8.6 °F - 6.8 °F 92% 30.51 in 1.5 mi Calm Calm - N/A   Clear
12:55 PM 10.4 °F - 8.6 °F 92% 30.48 in 1.5 mi Calm Calm - N/A   Clear
1:50 PM 10.4 °F - 6.8 °F 85% 30.46 in 1.5 mi Calm Calm - N/A   Clear
2:52 PM 12.2 °F 6.1 °F 8.6 °F 85% 30.45 in 2.0 mi SW 3.5 mph - N/A   Clear
3:50 PM 12.2 °F - 8.6 °F 85% 30.45 in 2.0 mi Calm Calm - N/A   Clear
4:50 PM 10.4 °F - 6.8 °F 85% 30.44 in 2.0 mi Calm Calm - N/A   Haze
6:50 PM 8.6 °F - 5.0 °F 85% 30.45 in 2.0 mi Calm Calm - N/A   Haze
7:50 PM 8.6 °F - 5.0 °F 85% 30.46 in 2.0 mi Calm Calm - N/A   Haze
8:50 PM 5.0 °F - 1.4 °F 85% 30.47 in 2.0 mi Calm Calm - N/A   Haze
9:15 PM 3.2 °F - 1.4 °F 92% 30.47 in 2.0 mi Calm Calm - N/A   Clear
9:35 PM 3.2 °F - -0.4 °F 85% 30.47 in 2.0 mi Calm Calm - N/A   Clear
9:55 PM 3.2 °F - 1.4 °F 92% 30.48 in 2.0 mi Calm Calm - N/A   Clear
10:15 PM 3.2 °F - 1.4 °F 92% 30.48 in 2.0 mi Calm Calm - N/A   Clear
10:35 PM 5.0 °F -2.1 °F 1.4 °F 85% 30.48 in 2.0 mi SSE 3.5 mph - N/A   Clear
11:35 PM 3.2 °F - -0.4 °F 85% 30.49 in 2.0 mi Calm Calm - N/A   Clear
11:55 PM 3.2 °F - 1.4 °F 92% 30.48 in 1.5 mi Calm Calm - N/A   Clear